Tracking 31027 objects as of 19-Jul-2025
HD Live streaming from Space Station
objects crossing your sky now

TITAN 3C TRANSTAGE R/B

Track TITAN 3C TRANSTAGE R/B now!


NORAD ID: 3692
Int'l Code: 1969-013B
Perigee: 35,851.8 km
Apogee: 37,305.3 km
Inclination: 0.4 °
Period: 1,476.4 minutes
Semi major axis: 42949 km
RCS: 2.2907 m2 (large)
Launch date: February 9, 1969
Source: United States (US)
Launch site: AIR FORCE EASTERN TEST RANGE (AFETR)

Note: This is a ROCKET BODY
Your satellite tracking list
STARLINK-4010
Track 1 satellite(s)




NASA's NSSDC Master Catalog

Two Line Element Set (TLE):
1 03692U 69013B   25199.52571806 -.00000104  00000-0  00000-0 0  9995
2 03692   0.4383  69.3877 0169212  40.7054 220.7311  0.97536052 39062
Source of the keplerian elements: AFSPC